Lapse_Rate
6.8 6.9 5.9 5.3 5.2 5.1 5.4 6.8 6.4 6.7 6.5 6.5 6.6 6.5 6.5 6.6 6.6 7.0 6.5 6.5 6.5 6.5 6.5 6.5 6.5 6.5 6.5 6.6 6.5 6.5 6.5 6.5 6.5 6.5 6.5 6.5 6.5 6.5 6.5 6.5 6.5 6.5 6.5 6.5
5.9 5.9 5.9 5.7 5.6 5.7 6.1 6.5 6.3 6.7 6.8 6.5 6.5 6.5 6.5 6.6 6.5 6.5 6.5 6.5 6.5 6.5 6.5 6.5 6.5 6.5 6.5 6.5 6.5 6.5 6.5 6.5 6.5 6.5 6.5 6.5 6.5 6.5 6.5 6.5 6.5 6.5 6.5 6.5
6.7 6.8 6.7 6.4 6.0 6.1 5.9 5.9 6.5 5.7 6.0 6.1 6.5 6.5 6.5 6.5 6.9 6.5 6.7 6.5 6.5 6.5 6.5 6.5 6.5 6.5 6.5 6.5 6.4 6.5 6.5 6.5 6.5 6.5 6.5 6.5 6.5 6.5 6.5 6.5 6.5 6.5 6.5 6.5
7.2 7.0 6.8 6.9 7.0 6.9 5.9 6.0 6.3 6.6 6.5 6.4 6.4 6.5 6.5 6.5 6.5 6.7 6.6 6.5 6.5 6.5 6.5 6.5 6.5 6.5 6.5 6.5 6.7 6.5 6.5 6.5 6.5 6.5 6.5 6.5 6.5 6.5 6.5 6.5 6.5 6.5 6.5 6.5
7.6 7.6 7.5 7.1 7.1 7.1 6.0 5.2 5.0 5.7 5.9 6.4 6.4 6.5 6.5 6.5 6.5 6.5 6.5 6.5 6.5 6.5 6.5 6.5 6.5 6.5 6.5 6.5 6.5 6.5 6.5 6.5 6.5 6.5 6.5 6.5 6.5 6.5 6.5 6.5 6.5 6.5 6.5 6.5
7.7 7.6 7.4 7.2 7.1 7.2 6.2 6.1 6.6 5.6 6.1 6.3 6.5 6.5 6.5 6.5 6.5 6.5 6.7 6.6 6.5 6.5 6.5 6.7 6.9 7.0 6.8 6.6 6.5 6.5 6.5 6.5 6.5 6.5 6.5 6.5 6.5 6.5 6.5 6.5 6.5 6.5 6.5 6.5
7.7 7.8 7.6 7.4 7.6 7.4 6.0 6.6 6.6 5.3 6.5 6.5 6.5 6.5 6.5 6.5 6.5 6.5 6.4 6.3 6.5 6.5 6.2 6.1 6.5 6.9 6.8 6.7 6.5 6.6 6.5 6.5 6.5 6.5 6.5 6.5 6.5 6.5 6.5 6.5 6.5 6.5 6.5 6.5
7.8 7.7 7.5 7.5 7.4 7.5 5.9 6.0 6.5 4.8 6.5 6.6 6.6 6.5 6.5 6.7 6.7 6.5 6.3 6.5 7.0 6.6 6.1 6.5 6.5 6.5 6.5 6.5 6.5 6.5 6.5 6.5 6.5 6.5 6.5 6.5 6.5 6.5 6.5 6.5 6.5 6.5 6.5 6.5
7.8 7.8 7.7 7.6 7.8 8.0 6.4 5.9 6.6 7.0 6.5 6.3 7.2 6.6 6.7 6.5 6.5 6.5 6.3 7.0 5.4 5.8 6.5 6.5 6.5 6.5 6.5 6.5 6.5 6.5 6.5 6.5 6.5 6.5 6.5 6.5 6.5 6.5 6.5 6.5 6.5 6.5 6.5 6.5
7.8 8.2 8.0 7.8 7.8 8.0 7.0 6.3 7.9 6.7 4.6 6.6 7.2 6.4 6.6 7.0 6.6 6.5 6.2 6.5 6.0 6.6 6.5 6.5 6.5 6.5 6.5 6.5 6.5 6.5 6.5 6.5 6.5 6.5 6.5 6.5 6.5 6.5 6.3 6.5 6.5 6.5 6.0 5.9
7.7 8.2 8.3 8.3 8.2 7.8 7.3 6.0 8.1 6.2 5.8 6.9 7.3 7.0 6.7 6.5 6.6 6.5 6.6 6.4 6.4 6.5 6.5 6.5 6.5 6.5 6.5 6.5 6.5 6.5 6.5 6.5 6.5 6.5 6.5 6.5 6.6 6.4 6.5 6.5 6.1 5.9 6.0 5.8
8.4 8.3 8.3 8.2 8.0 7.9 8.4 6.2 8.3 8.6 7.0 6.1 6.2 6.3 6.8 6.7 6.7 6.6 6.1 6.1 6.4 5.3 6.5 6.5 6.5 6.5 6.5 6.5 6.5 6.5 6.5 6.5 6.5 6.5 6.5 6.4 5.5 5.5 4.0 5.6 5.2 6.0 4.8 5.9
8.1 8.2 8.3 8.2 8.3 8.0 8.3 6.1 6.6 6.5 5.8 5.7 6.0 6.4 6.2 6.9 6.9 7.4 6.1 6.0 7.0 6.1 5.2 6.5 6.4 6.5 6.5 6.5 6.5 6.5 6.5 6.6 6.5 6.5 6.5 6.5 5.4 5.0 5.8 5.6 6.3 5.9 6.3 5.5
8.3 8.1 8.1 7.9 8.1 8.0 8.2 6.2 6.0 6.4 6.3 5.1 6.2 7.8 7.0 7.7 7.1 6.9 6.7 6.7 7.0 6.3 5.8 4.4 6.5 6.5 6.3 6.5 6.5 6.5 6.5 6.5 6.5 6.5 6.5 6.2 6.0 5.4 6.4 6.2 6.1 6.7 6.9 6.0
8.5 8.7 8.2 8.1 8.1 8.2 8.2 7.1 6.3 6.5 6.0 4.9 5.9 6.9 5.5 6.3 6.7 6.6 6.7 6.2 5.9 5.3 5.7 6.2 6.5 6.2 6.5 6.5 6.5 6.5 6.4 6.5 6.5 6.5 6.1 6.1 5.8 5.5 5.4 6.5 6.5 7.0 6.1 5.8
7.1 8.6 8.4 8.1 7.9 8.0 6.5 6.0 6.1 6.7 6.3 6.8 6.5 5.6 6.8 6.8 6.7 6.1 6.3 6.5 5.3 5.0 6.1 6.2 5.7 6.9 5.7 6.5 6.5 6.5 6.3 6.7 6.7 6.2 5.4 5.5 5.2 5.5 6.4 6.1 6.0 6.3 5.9 6.7
7.6 8.5 8.2 7.8 7.9 6.5 5.9 5.1 6.6 7.9 6.4 6.8 6.4 6.1 6.1 7.2 6.9 3.8 4.4 5.5 5.3 4.6 5.8 6.5 6.5 6.4 6.2 6.5 6.5 6.5 6.8 6.7 6.9 6.3 6.0 5.8 6.1 5.8 5.9 6.1 6.1 6.5 7.3 6.7
8.7 8.3 7.8 7.9 8.0 7.7 6.2 6.3 7.8 8.0 6.4 6.5 6.5 6.5 6.0 7.1 5.6 6.2 4.2 3.8 5.8 6.2 6.5 6.7 6.4 6.2 6.0 6.5 6.5 6.8 7.0 6.9 6.3 6.4 6.5 6.6 6.7 6.7 6.1 6.5 6.1 6.4 6.1 5.8
8.1 7.9 8.0 7.0 6.9 6.0 6.3 7.7 7.8 7.6 5.9 5.6 5.6 6.5 6.5 6.0 5.7 6.0 6.4 6.3 6.5 6.3 6.5 6.5 6.3 6.5 6.5 6.5 6.5 6.5 6.7 6.6 6.8 7.1 6.9 6.9 6.8 6.5 6.2 6.4 6.6 5.9 5.8 5.7
8.1 7.5 5.6 3.9 6.0 7.2 7.2 5.6 6.7 6.7 6.7 6.6 6.4 6.3 6.5 6.0 5.3 5.8 6.6 6.5 6.5 6.5 6.5 6.8 6.5 6.5 6.5 6.9 5.2 5.6 6.1 6.8 7.3 6.9 6.6 7.1 6.5 6.1 5.3 5.9 5.7 5.1 4.9 4.5
7.0 5.2 4.4 6.1 7.8 6.6 5.7 6.1 5.6 5.5 6.4 6.2 6.3 6.5 6.5 6.1 6.5 6.5 5.5 6.5 6.5 6.5 6.5 6.5 6.5 6.5 6.5 7.1 6.8 6.1 7.0 6.6 7.5 8.0 8.0 7.5 6.8 5.3 5.1 5.1 3.9 3.6 3.2 2.5
7.4 7.1 6.7 7.1 6.6 6.0 6.5 6.5 6.2 6.5 6.5 6.1 6.4 6.1 6.2 6.0 6.5 6.5 6.6 6.5 6.5 6.5 4.8 6.5 6.5 6.5 7.0 6.6 6.2 5.9 6.2 6.9 7.0 7.8 6.7 6.2 5.9 4.7 6.2 5.4 4.4 3.1 1.5 1.0
7.6 7.0 6.4 6.1 5.4 6.5 6.5 6.5 6.5 6.5 6.2 5.9 6.4 6.5 6.5 6.1 5.8 6.4 6.5 6.5 6.5 4.4 6.5 6.5 6.5 6.6 7.0 6.8 5.2 6.8 6.8 6.4 6.0 6.5 5.2 4.1 4.1 4.2 3.5 3.6 2.5 2.5 3.0 2.3
6.5 6.5 6.5 6.5 6.5 6.5 6.5 6.5 6.5 6.0 6.1 5.9 5.7 6.5 6.4 5.4 6.4 6.4 6.5 6.5 6.5 6.5 6.5 6.5 6.5 6.8 7.2 7.6 7.0 7.0 7.0 5.9 5.5 6.1 4.1 2.7 2.9 3.4 2.8 2.6 2.5 3.0 3.9 3.8
6.5 6.5 6.5 6.5 6.4 6.3 5.6 5.3 5.7 5.6 5.7 5.6 5.5 5.7 4.8 6.5 6.5 6.5 6.5 6.5 6.5 6.5 6.5 6.5 5.5 6.2 6.3 7.2 7.6 7.4 7.1 6.4 5.7 5.9 4.3 3.0 2.7 3.4 2.9 2.7 2.8 3.0 3.5 3.8
6.4 6.4 6.2 4.4 4.7 5.1 5.5 6.1 5.0 5.6 5.3 5.4 4.4 6.5 6.5 6.5 6.5 6.5 6.5 6.5 6.5 6.5 6.5 4.6 4.9 5.5 5.1 5.3 6.1 6.1 5.8 6.4 6.0 6.1 5.2 4.1 3.6 3.2 3.0 2.4 2.1 1.9 2.5 3.5
6.9 6.2 5.7 6.5 6.0 6.3 4.3 5.9 4.7 6.0 6.1 6.5 5.4 6.5 6.5 6.5 6.5 6.5 6.5 6.5 6.5 6.5 6.2 6.3 6.0 5.3 5.6 5.5 5.2 4.8 5.5 5.8 6.6 6.1 4.6 3.6 2.8 2.1 3.9 4.0 2.2 2.3 0.8 1.3
Wind_Speed
11 8 4 3 1 2 1 2 2 1 4 4 3 5 3 3 8 12 11 11 16 18 16 16 17 19 17 21 21 19 21 7 11 16 14 13 14 15 10 2 6 2 2 6
9 7 5 2 1 3 2 2 3 2 3 3 3 7 14 16 16 16 9 11 11 16 19 16 12 15 14 8 13 3 8 4 7 9 9 6 10 12 2 2 2 4 4 4
9 8 5 3 2 1 1 1 1 2 1 2 2 6 11 14 9 18 14 18 16 14 16 17 12 20 16 17 13 15 10 4 9 10 7 10 13 14 13 6 2 4 8 10
9 8 4 3 2 2 2 1 3 1 2 3 7 6 9 14 15 10 11 10 13 14 7 6 6 9 14 19 24 15 6 6 9 13 16 17 17 18 18 19 13 10 11 15
9 8 5 4 3 1 1 2 1 3 3 6 6 6 5 15 18 14 15 13 14 13 7 9 14 5 3 6 8 5 2 9 10 20 19 16 18 21 16 18 19 17 17 20
9 8 6 4 2 3 2 2 3 3 4 3 2 4 9 14 15 5 10 8 14 11 11 8 11 11 12 14 13 6 3 3 3 8 9 10 12 17 19 20 20 15 16 19
12 10 7 6 5 3 1 1 1 1 3 3 5 12 14 14 14 12 12 10 6 9 6 10 11 19 20 18 22 16 13 9 4 6 2 8 10 8 13 18 20 13 15 5
13 12 10 9 6 5 0 2 1 1 4 5 12 11 15 14 13 13 13 9 11 8 4 4 4 5 6 11 24 20 18 12 6 5 7 10 14 13 12 3 11 14 10 1
13 12 10 8 7 8 3 3 2 2 1 5 6 11 9 10 8 7 6 9 6 4 2 3 3 6 4 7 11 14 15 14 9 5 5 7 1 4 1 4 6 6 6 5
16 15 13 11 10 10 5 3 3 1 2 7 4 4 5 6 6 6 7 7 5 2 2 3 6 3 6 4 7 11 6 4 14 14 8 6 3 7 3 4 4 12 8 6
19 18 16 16 13 11 6 3 11 3 3 9 10 13 12 9 5 6 4 7 3 3 3 3 2 3 3 5 8 10 9 5 4 2 4 7 2 3 5 5 2 4 8 4
24 22 20 17 14 13 10 2 7 6 3 5 8 13 14 15 15 9 3 5 7 3 2 3 3 3 2 4 4 9 5 3 3 3 3 3 6 6 9 10 7 10 3 3
27 23 19 19 17 15 12 2 1 2 3 6 7 9 15 15 15 12 9 4 4 4 4 2 3 4 2 4 8 12 7 9 3 3 7 6 7 7 5 8 4 4 3 4
27 25 22 20 17 13 12 2 2 2 3 3 6 8 9 9 8 10 14 17 12 7 4 3 4 3 3 3 9 13 11 7 5 3 16 6 3 4 3 5 6 3 2 3
27 26 22 19 16 13 9 3 5 7 3 3 8 14 22 19 17 18 11 5 6 4 4 4 4 3 5 6 9 9 3 1 2 4 4 1 4 5 5 3 2 3 5 6
29 24 21 19 16 11 2 2 2 2 3 3 3 4 11 14 9 8 13 9 5 4 3 3 4 6 4 3 3 9 7 14 14 5 6 5 6 6 5 6 6 5 6 2
26 22 19 17 14 5 3 4 3 4 3 3 3 4 4 4 4 2 3 6 4 3 3 4 7 7 4 4 10 19 20 21 16 6 8 8 7 8 7 5 7 4 2 2
21 17 16 13 11 7 4 6 16 3 2 3 3 4 4 3 1 3 3 2 2 3 3 3 3 2 4 6 11 17 17 8 6 11 11 10 11 12 8 5 3 4 4 5
18 16 12 3 1 2 3 1 4 7 3 2 2 2 4 2 2 2 2 3 4 3 5 4 4 3 5 9 13 6 11 7 10 11 10 13 11 12 8 5 3 4 4 4
18 6 2 1 3 14 7 3 1 2 3 3 4 2 7 2 0 1 3 3 2 3 6 4 4 4 14 9 11 8 9 10 11 10 14 13 14 12 7 6 4 6 5 5
1 2 2 3 11 1 2 2 2 2 3 3 4 8 8 2 2 2 3 3 1 2 2 3 3 1 7 8 7 6 6 7 12 11 9 9 10 11 6 7 7 7 8 7
3 2 3 3 2 2 2 3 3 4 3 3 3 4 4 3 3 2 4 2 3 3 2 3 2 2 5 5 6 5 5 7 11 10 11 11 11 10 8 8 8 7 6 7
1 1 1 1 2 2 4 3 3 3 3 3 3 3 2 3 2 3 2 1 3 1 2 2 2 3 4 3 3 6 8 9 10 9 9 9 9 10 9 7 7 6 6 5
1 1 3 3 3 4 4 2 4 3 4 6 3 2 2 2 1 1 1 3 1 3 1 1 2 4 6 7 6 8 11 9 10 7 7 8 7 6 6 5 4 5 5 4
2 2 3 6 4 5 3 6 3 3 3 3 4 3 2 2 1 2 2 3 3 3 1 2 2 1 1 6 9 9 9 7 8 6 5 5 6 5 4 5 4 4 4 5
2 3 3 3 2 2 2 3 3 3 4 2 1 3 1 3 2 2 4 3 1 2 3 3 4 5 4 5 5 5 5 8 7 6 5 5 6 5 3 3 3 3 1 3
4 4 4 4 3 5 3 2 3 4 3 2 2 2 3 1 2 3 1 3 3 3 2 3 3 3 6 6 5 6 5 6 8 6 5 5 5 3 3 1 1 2 3 4
Wind_Direction
153 150 148 119 24 324 277 245 209 324 94 196 223 237 246 282 287 308 301 299 291 286 286 287 269 268 260 309 310 307 299 265 275 265 278 291 287 282 287 211 278 270 280 259
165 172 181 149 68 13 313 211 224 237 132 225 235 281 278 281 287 284 291 276 283 301 288 288 270 271 274 272 301 322 336 288 298 284 303 264 253 269 100 157 249 225 263 246
168 174 168 154 109 30 235 309 280 252 175 298 291 296 287 281 282 282 284 288 282 292 282 277 276 282 274 273 256 287 304 251 240 248 261 300 291 281 277 259 220 272 250 285
177 167 157 199 170 35 23 351 259 250 229 246 228 251 277 287 291 287 295 293 278 280 275 297 285 312 300 298 276 257 247 242 240 261 264 271 269 276 278 274 263 223 275 273
168 170 154 115 169 102 22 164 171 341 314 302 292 268 252 283 292 290 303 293 309 309 247 257 286 286 305 272 323 264 79 269 256 256 253 260 272 266 270 268 263 258 251 247
187 186 176 171 158 186 219 255 323 131 252 260 271 238 268 280 292 297 305 307 307 283 287 339 296 266 253 244 266 259 236 218 236 261 226 249 256 257 246 256 257 249 253 262
197 198 195 195 209 227 29 318 84 360 268 261 264 286 298 308 318 319 298 295 247 254 237 318 267 255 253 252 249 243 250 234 255 274 230 254 231 203 222 233 249 254 253 281
209 208 203 206 216 231 263 294 95 91 278 313 297 305 311 332 322 316 303 328 348 321 339 283 287 264 236 241 241 231 222 226 243 243 243 294 290 283 275 243 260 266 254 169
219 208 216 217 224 230 237 268 250 137 301 246 288 323 308 300 309 303 322 313 342 278 186 247 270 285 314 302 323 228 220 222 219 230 251 249 352 8 352 107 301 243 161 123
220 215 215 216 224 225 214 260 322 67 212 278 240 261 310 318 313 293 312 338 308 284 227 248 248 257 279 283 285 316 295 215 228 228 227 272 46 355 4 135 262 336 76 112
223 219 217 215 220 225 214 247 244 171 249 285 268 280 281 293 275 272 304 323 20 329 1 316 353 2 301 284 290 295 284 260 233 201 232 240 183 38 142 185 234 348 275 120
220 218 213 209 216 221 216 241 263 280 232 260 310 280 267 258 251 261 230 256 302 248 304 309 290 284 282 280 284 320 285 327 239 189 247 229 192 187 212 188 194 206 208 222
216 214 213 210 214 220 215 215 293 12 263 281 250 250 254 243 238 234 243 240 217 233 159 321 295 278 276 305 290 287 281 351 289 346 343 223 197 240 204 209 206 171 178 245
213 213 210 208 212 218 227 166 221 174 268 265 285 274 269 276 265 246 226 237 244 257 263 212 253 248 250 277 297 288 275 293 262 298 256 303 36 349 357 350 341 340 16 147
211 210 206 205 211 218 231 219 229 206 169 252 288 305 284 265 261 265 255 225 230 212 248 242 246 235 248 256 265 262 245 255 259 251 288 207 245 255 263 231 294 227 241 268
199 205 199 202 203 203 93 320 325 46 177 247 263 275 287 283 250 249 231 233 224 204 200 238 218 213 244 271 262 259 277 311 311 277 301 285 269 249 238 234 244 270 269 236
185 189 192 193 188 165 173 196 175 217 123 284 279 279 248 285 293 205 200 216 209 182 215 233 252 255 214 276 270 281 288 282 298 354 356 352 343 310 263 247 246 256 212 267
171 166 177 179 194 218 262 260 276 231 217 251 264 269 281 147 29 299 3 118 106 222 211 236 206 203 191 250 254 262 269 281 4 359 346 318 309 303 289 253 233 216 209 259
147 157 145 99 196 216 233 162 151 178 173 251 253 255 275 164 175 160 259 207 195 193 203 209 185 196 232 244 252 329 24 13 340 336 330 328 315 294 286 268 303 249 214 257
133 113 105 305 236 121 105 33 216 213 207 225 246 229 254 343 80 308 316 213 203 204 214 142 178 244 244 260 57 29 12 6 349 354 347 349 355 354 342 340 359 57 55 36
211 120 200 304 147 99 228 220 186 185 241 221 239 219 244 271 172 212 187 273 255 287 129 188 198 253 36 41 36 37 353 1 353 354 3 8 1 346 354 38 54 50 42 27
175 142 135 183 229 228 213 231 227 221 244 223 227 255 201 247 189 164 228 277 15 269 320 44 349 351 337 23 5 344 327 1 352 358 8 360 12 358 13 39 44 49 51 38
240 136 204 157 223 244 232 235 221 244 303 334 265 274 233 206 177 254 301 4 240 318 50 215 60 1 8 357 2 359 12 11 354 8 12 6 8 16 19 30 34 46 60 53
281 201 255 230 203 226 221 261 266 250 232 267 310 292 273 273 258 307 300 249 8 341 304 106 66 341 347 3 14 12 351 356 342 354 16 9 1 3 11 20 17 54 55 54
275 239 243 219 231 255 220 232 279 262 253 303 311 277 199 259 328 227 284 311 270 215 342 38 223 226 12 9 1 355 348 342 331 341 10 13 353 359 7 10 17 35 60 68
259 242 268 278 332 328 334 313 294 314 328 281 214 265 297 255 219 216 222 265 303 54 356 322 11 18 12 358 345 340 5 340 325 342 358 355 354 339 340 354 22 24 54 101
232 228 218 259 262 258 246 307 271 307 328 289 307 268 239 295 229 212 310 32 25 20 344 312 344 346 340 339 4 355 344 344 338 330 331 317 306 315 281 331 335 86 125 147